Location: Newark
(40.7830°N, 8.7430°E)
Time: 06:40:15
(UTC+00:00)

ISS - Pass Details

Date: 17 September 2019
Orbit: 411 x 421 km, 51.6° (Epoch: 19 October)

Event Time Altitude Azimuth Distance (km) Brightness Sun altitude
Rises 18:28:53 0° 188° (S) 2,326 0.0 -11.6°
Reaches altitude 10° 18:31:49 10° 159° (SSE) 1,470 -1.3 -12.1°
Enters shadow 18:32:19 12° 151° (SSE) 1,385 -1.5 -12.2°
